Fond du Lac, WI

7:00 PM CDT on September 30, 2016 (GMT -0500)
Fond du Lac County

Weather History for KFLD - February, 2014

Change the Weather History Date:

Friday, February 28, 2014

  Actual Average Record
Temperature  
Mean Temperature 4 °F -  
Max Temperature 19 °F 35 °F 54 °F (2016)
Min Temperature -11 °F 18 °F -15 °F (1962)
Degree Days  
Heating Degree Days 61    
Moisture  
Dew Point 0 °F    
Average Humidity 68    
Maximum Humidity 88    
Minimum Humidity 50    
Precipitation  
Precipitation 0.05 in - - ()
Sea Level Pressure  
Sea Level Pressure 30.10 in    
Wind  
Wind Speed 6 mph (South)    
Max Wind Speed 23 mph    
Max Gust Speed -    
Visibility 7 miles    
Events Snow    
Averages and records for this station are not official NWS values.
T = Trace of Precipitation, MM = Missing Value Source: NWS Daily Summary

Daily Weather History Graph

Daily Weather History Graph

Search for Another Location

Airport or City:

Trip Planner

Search our weather history database for the weather conditions in past years. The results will help you decide how hot, cold, wet, or windy it might be!

Date:

Astronomy

Feb. 28, 2014 Rise Set
Actual Time 6:32 AM CST 5:41 PM CST
Civil Twilight 6:03 AM CST 6:10 PM CST
Nautical Twilight 5:30 AM CST 6:43 PM CST
Astronomical Twilight 4:56 AM CST 7:16 PM CST
Moon 5:47 AM CST (2/28) 5:18 PM CST (2/28)
Length of Visible Light 12h 06m
Length of Day
11h 09m
Waning Crescent, 1% of the Moon is Illuminated
Feb 28
Waning Crescent
Mar 1
New
Mar 8
First Quarter
Mar 16
Full
Mar 23
Last Quarter

Hourly Weather History & Observations

Time (CST) Temp. Windchill Dew Point Humidity Pressure Visibility Wind Dir Wind Speed Gust Speed Precip Events Conditions
12:53 AM -11.9 °F - -18.0 °F 74% 30.23 in 10.0 mi Calm Calm - N/A   Clear
1:53 AM -11.9 °F -23.8 °F -18.9 °F 71% 30.23 in 10.0 mi South 4.6 mph - N/A   Clear
2:53 AM -11.0 °F - -18.0 °F 71% 30.22 in 10.0 mi Calm Calm - N/A   Clear
3:53 AM -11.0 °F - -18.0 °F 71% 30.22 in 10.0 mi Calm Calm - N/A   Clear
4:53 AM -9.0 °F -20.4 °F -17.0 °F 68% 30.20 in 10.0 mi SSE 4.6 mph - N/A   Clear
5:53 AM -8.0 °F -19.2 °F -16.1 °F 68% 30.21 in 10.0 mi South 4.6 mph - N/A   Partly Cloudy
6:53 AM -8.0 °F -19.2 °F -16.1 °F 68% 30.20 in 10.0 mi SSE 4.6 mph - N/A   Scattered Clouds
7:53 AM -0.0 °F -13.0 °F -11.9 °F 57% 30.19 in 10.0 mi South 6.9 mph - N/A   Clear
8:53 AM 6.1 °F -10.9 °F -8.0 °F 53% 30.19 in 10.0 mi South 13.8 mph - N/A   Scattered Clouds
9:53 AM 9.0 °F -8.5 °F -4.0 °F 56% 30.17 in 10.0 mi South 16.1 mph - N/A   Overcast
10:53 AM 10.9 °F -8.8 °F -2.9 °F 54% 30.17 in 10.0 mi South 23.0 mph - N/A   Overcast
11:53 AM 12.0 °F -5.1 °F -2.0 °F 53% 30.13 in 10.0 mi South 17.3 mph - N/A   Overcast
12:53 PM 14.0 °F -0.8 °F -0.0 °F 54% 30.09 in 10.0 mi South 13.8 mph - N/A   Overcast
1:53 PM 15.1 °F -1.1 °F -0.0 °F 51% 30.04 in 10.0 mi SSE 17.3 mph - N/A   Overcast
2:53 PM 17.1 °F 3.6 °F 1.0 °F 50% 30.03 in 10.0 mi SSE 12.7 mph - N/A   Overcast
3:53 PM 17.1 °F 5.0 °F 1.9 °F 52% 30.04 in 10.0 mi South 10.4 mph - N/A   Overcast
4:53 PM 18.0 °F 2.2 °F 3.0 °F 52% 29.99 in 10.0 mi South 18.4 mph - N/A   Overcast
5:53 PM 19.0 °F 8.2 °F 5.0 °F 54% 30.00 in 10.0 mi South 9.2 mph - N/A   Overcast
6:53 PM 19.0 °F 13.9 °F 6.1 °F 57% 30.04 in 10.0 mi NNW 3.5 mph - N/A   Overcast
7:53 PM 17.1 °F 10.0 °F 10.9 °F 77% 30.04 in 4.0 mi South 4.6 mph - 0.00 in Snow Light Snow
8:46 PM 17.1 °F 11.7 °F 12.9 °F 84% 29.99 in 2.5 mi SSE 3.5 mph - 0.00 in Snow Light Snow
8:53 PM 17.1 °F - 12.9 °F 84% 30.05 in 2.5 mi Calm Calm - 0.00 in Snow Light Snow
8:58 PM 17.1 °F - 12.9 °F 84% 30.00 in 1.5 mi Calm Calm - 0.00 in Snow Light Snow
9:08 PM 17.1 °F - 12.9 °F 84% 30.00 in 1.5 mi Calm Calm - 0.01 in Snow Light Snow
9:53 PM 17.1 °F - 14.0 °F 88% 30.06 in 1.5 mi Calm Calm - 0.02 in Snow Light Snow
10:51 PM 17.6 °F - 12.2 °F 79% 30.00 in 2.0 mi Calm Calm - 0.03 in Snow Light Snow
10:53 PM 17.1 °F - 12.9 °F 84% 30.06 in 2.0 mi Calm Calm - 0.03 in Snow Light Snow
11:07 PM 17.1 °F - 14.0 °F 88% 30.01 in 4.0 mi Calm Calm - 0.00 in Snow Light Snow
11:53 PM 17.1 °F 11.7 °F 12.9 °F 84% 30.07 in 4.0 mi West 3.5 mph - 0.00 in Snow Light Snow